Date String (YYYY-MM-DD hh:mm:ss) UTC,Instrument flags,absolute air pressure of the measurement (hPa),sample flow rate (lpm),inlet stack bypass flow (lpm),air temperature of the measurement (°C),ambient temperature measured by the external sensor (°C),aerosol sample conditioner tube jacket temperature (°C),OPC LED temperature (°C),internal box temperature (°C),relative humidity of the measurement (%),span deviation,mass concentration of particles derived from Lorenz-Mie calculation of OPC scattering (μg/m³),mass concentration of particles derived from Lorenz-Mie calculation of OPC scattering (μg/m³),mass concentration of particles derived from Lorenz-Mie calculation of OPC scattering (μg/m³)
DateTimeUTC,F1_M11,P_M11,Q1_M11,Q2_M11,T1_M11,T2_M11,T3_M11,T4_M11,T5_M11,U1_M11,ZSPAN_M11,X0_M11,X2_M11,X1_M11
2023-09-08 07:00:00,SystemResetWarning,0836.1,4.98,000.00,028.4,025.8,000.0,036.6,029.7,15.4,0000.0,0013.56,0003.24,0001.73
2023-09-08 07:01:00,SystemResetWarning,0836.1,5.02,000.00,028.2,024.6,000.0,036.6,029.5,15.4,0000.0,0013.13,0003.25,0001.75
2023-09-08 07:02:00,SystemResetWarning,0836.1,5.01,000.00,028.2,024.5,000.0,036.5,029.3,15.4,0000.0,0012.92,0003.27,0001.77
2023-09-08 07:03:00,SystemResetWarning,0836.1,5.00,000.00,028.1,024.8,000.0,036.5,029.2,15.6,0000.0,0012.97,0003.29,0001.77
2023-09-08 07:04:00,SystemResetWarning,0836.1,5.00,000.00,028.0,025.2,000.0,036.5,029.3,15.6,0000.0,0013.29,0003.28,0001.77
2023-09-08 07:05:00,SystemResetWarning,0836.1,5.00,000.00,028.0,025.5,000.0,036.5,029.4,15.5,0000.0,0013.07,0003.25,0001.77
2023-09-08 07:06:00,SystemResetWarning,0836.1,4.99,000.00,028.0,025.8,000.0,036.5,029.5,15.6,0000.0,0012.03,0003.24,0001.75
2023-09-08 07:07:00,SystemResetWarning,0836.2,5.00,000.00,028.0,026.1,000.0,036.5,029.6,15.6,0000.0,0010.97,0003.23,0001.75
2023-09-08 07:08:00,SystemResetWarning,0836.3,5.00,000.00,028.1,026.3,000.0,036.5,029.6,15.6,0000.0,0010.56,0003.23,0001.75
2023-09-08 07:09:00,SystemResetWarning,0836.3,5.01,000.00,028.1,026.5,000.0,036.5,029.7,15.8,0000.0,0010.34,0003.24,0001.76
2023-09-08 07:10:00,SystemResetWarning,0836.3,5.00,000.00,028.1,026.7,000.0,036.5,029.7,16.7,0000.0,0010.39,0003.25,0001.76
2023-09-08 07:11:00,SystemResetWarning,0836.2,4.99,000.00,028.1,026.8,000.0,036.5,029.8,16.7,0000.0,0010.33,0003.22,0001.76
2023-09-08 07:12:00,SystemResetWarning,0836.3,4.99,000.00,028.2,027.0,000.0,036.5,029.8,16.7,0000.0,0010.41,0003.22,0001.73
2023-09-08 07:13:00,SystemResetWarning,0836.2,5.00,000.00,028.2,027.1,000.0,036.5,029.9,16.3,0000.0,0009.93,0003.23,0001.73
2023-09-08 07:14:00,SystemResetWarning,0836.2,5.00,000.00,028.2,027.1,000.0,036.5,029.9,16.1,0000.0,0009.53,0003.19,0001.74
2023-09-08 07:15:00,SystemResetWarning,0836.2,5.00,000.00,028.3,027.2,000.0,036.6,029.9,16.0,0000.0,0008.74,0003.17,0001.75
2023-09-08 07:16:00,SystemResetWarning,0836.2,5.00,000.00,028.3,027.2,000.0,036.6,029.9,16.0,0000.0,0008.71,0003.18,0001.75
2023-09-08 07:17:00,SystemResetWarning,0836.3,5.00,000.00,028.3,027.3,000.0,036.6,030.0,15.9,0000.0,0008.75,0003.19,0001.76
2023-09-08 07:18:00,SystemResetWarning,0836.2,5.00,000.00,028.4,027.3,000.0,036.6,030.0,15.8,0000.0,0009.93,0003.21,0001.76
2023-09-08 07:19:00,SystemResetWarning,0836.3,4.99,000.00,028.4,027.4,000.0,036.7,030.0,15.7,0000.0,0010.12,0003.21,0001.76
2023-09-08 07:20:00,SystemResetWarning,0836.4,4.99,000.00,028.4,027.4,000.0,036.7,030.1,15.7,0000.0,0009.23,0003.18,0001.76
2023-09-08 07:21:00,SystemResetWarning,0836.3,5.00,000.00,028.4,026.5,000.0,036.7,029.9,15.7,0000.0,0009.01,0003.15,0001.76
2023-09-08 07:22:00,SystemResetWarning,0836.2,5.00,000.00,028.3,024.8,000.0,036.6,029.5,15.8,0000.0,0008.83,0003.14,0001.76
2023-09-08 07:23:00,SystemResetWarning,0836.2,5.01,000.00,028.2,024.4,000.0,036.5,029.4,15.9,0000.0,0008.63,0003.11,0001.78
2023-09-08 07:24:00,SystemResetWarning,0836.3,5.01,000.00,028.1,024.6,000.0,036.5,029.2,16.1,0000.0,0008.59,0003.07,0001.77
2023-09-08 07:25:00,SystemResetWarning,0836.2,5.00,000.00,028.0,024.9,000.0,036.5,029.3,16.2,0000.0,0008.79,0003.04,0001.76
2023-09-08 07:26:00,SystemResetWarning,0836.2,4.98,000.00,028.0,025.3,000.0,036.5,029.4,16.3,0000.0,0008.75,0002.94,0001.74
2023-09-08 07:27:00,SystemResetWarning,0836.3,5.00,000.00,028.0,025.6,000.0,036.5,029.4,16.3,0000.0,0008.84,0002.93,0001.72
2023-09-08 07:28:00,SystemResetWarning,0836.2,5.00,000.00,028.0,025.9,000.0,036.5,029.5,16.3,0000.0,0008.92,0002.95,0001.71
2023-09-08 07:29:00,SystemResetWarning,0836.2,5.01,000.00,028.0,026.1,000.0,036.5,029.5,16.2,0000.0,0008.02,0003.00,0001.72
2023-09-08 07:30:00,SystemResetWarning,0836.2,5.00,000.00,028.0,026.3,000.0,036.5,029.6,16.2,0000.0,0008.17,0003.08,0001.72
2023-09-08 07:31:00,SystemResetWarning,0836.2,5.00,000.00,028.1,026.5,000.0,036.5,029.6,16.2,0000.0,0008.61,0003.10,0001.72
2023-09-08 07:32:00,SystemResetWarning,0836.2,5.00,000.00,028.1,026.6,000.0,036.5,029.7,16.2,0000.0,0009.97,0003.12,0001.73
2023-09-08 07:33:00,SystemResetWarning,0836.3,5.00,000.00,028.1,026.7,000.0,036.5,029.7,16.1,0000.0,0010.32,0003.16,0001.73
2023-09-08 07:34:00,SystemResetWarning,0836.3,5.00,000.00,028.1,026.8,000.0,036.5,029.8,16.1,0000.0,0010.36,0003.17,0001.73
2023-09-08 07:35:00,SystemResetWarning,0836.2,5.00,000.00,028.2,026.9,000.0,036.5,029.8,16.0,0000.0,0010.72,0003.18,0001.73
2023-09-08 07:36:00,SystemResetWarning,0836.3,4.99,000.00,028.2,027.0,000.0,036.5,029.8,15.9,0000.0,0010.95,0003.18,0001.74
2023-09-08 07:37:00,SystemResetWarning,0836.3,5.00,000.00,028.2,027.1,000.0,036.6,029.9,15.8,0000.0,0011.44,0003.19,0001.76
2023-09-08 07:38:00,SystemResetWarning,0836.3,5.00,000.00,028.2,027.1,000.0,036.6,029.9,15.8,0000.0,0011.25,0003.19,0001.78
2023-09-08 07:39:00,SystemResetWarning,0836.3,5.00,000.00,028.3,027.2,000.0,036.6,029.9,15.7,0000.0,0011.22,0003.18,0001.81
2023-09-08 07:40:00,SystemResetWarning,0836.3,5.00,000.00,028.3,027.2,000.0,036.6,029.9,15.6,0000.0,0011.02,0003.16,0001.81
2023-09-08 07:41:00,SystemResetWarning,0836.3,4.99,000.00,028.3,027.2,000.0,036.6,029.9,15.5,0000.0,0010.61,0003.16,0001.81
2023-09-08 07:42:00,SystemResetWarning,0836.4,5.00,000.00,028.3,027.3,000.0,036.7,030.0,15.4,0000.0,0010.41,0003.16,0001.84
2023-09-08 07:43:00,SystemResetWarning,0836.3,5.00,000.00,028.4,027.3,000.0,036.7,030.0,15.4,0000.0,0008.97,0003.16,0001.85
2023-09-08 07:44:00,SystemResetWarning,0836.3,5.00,000.00,028.4,027.3,000.0,036.7,030.0,15.3,0000.0,0008.75,0003.15,0001.85
2023-09-08 07:45:00,SystemResetWarning,0836.3,5.00,000.00,028.4,027.3,000.0,036.7,030.0,15.3,0000.0,0009.24,0003.17,0001.85
2023-09-08 07:46:00,SystemResetWarning,0836.3,5.00,000.00,028.4,027.3,000.0,036.7,030.0,15.2,0000.0,0009.64,0003.24,0001.86
2023-09-08 07:47:00,SystemResetWarning,0836.3,4.98,000.00,028.5,026.6,000.0,036.7,029.9,15.2,0000.0,0009.53,0003.30,0001.88
2023-09-08 07:48:00,SystemResetWarning,0836.3,5.01,000.00,028.3,024.8,000.0,036.6,029.5,15.3,0000.0,0010.17,0003.35,0001.88
2023-09-08 07:49:00,SystemResetWarning,0836.3,5.02,000.00,028.2,024.4,000.0,036.6,029.4,15.4,0000.0,0010.85,0003.38,0001.87
2023-09-08 07:50:00,SystemResetWarning,0836.3,5.00,000.00,028.1,024.5,000.0,036.6,029.3,15.6,0000.0,0011.95,0003.46,0001.88
2023-09-08 07:51:00,SystemResetWarning,0836.3,5.00,000.00,028.0,024.8,000.0,036.5,029.2,15.6,0000.0,0012.17,0003.49,0001.89
2023-09-08 07:52:00,SystemResetWarning,0836.3,5.00,000.00,028.0,025.2,000.0,036.5,029.3,15.6,0000.0,0012.38,0003.48,0001.88
2023-09-08 07:53:00,SystemResetWarning,0836.3,4.99,000.00,028.0,025.5,000.0,036.5,029.4,15.6,0000.0,0013.83,0003.53,0001.86
2023-09-08 07:54:00,SystemResetWarning,0836.3,5.00,000.00,028.0,025.8,000.0,036.5,029.4,15.7,0000.0,0014.30,0003.55,0001.88
2023-09-08 07:55:00,SystemResetWarning,0836.3,5.01,000.00,028.0,026.0,000.0,036.5,029.5,15.7,0000.0,0014.56,0003.54,0001.87
2023-09-08 07:56:00,SystemResetWarning,0836.4,5.01,000.00,028.0,026.2,000.0,036.5,029.5,15.7,0000.0,0014.83,0003.57,0001.88
2023-09-08 07:57:00,SystemResetWarning,0836.4,4.99,000.00,028.0,026.4,000.0,036.5,029.6,15.7,0000.0,0014.92,0003.56,0001.87
2023-09-08 07:58:00,SystemResetWarning,0836.4,4.99,000.00,028.1,026.5,000.0,036.5,029.6,15.7,0000.0,0014.83,0003.56,0001.86
2023-09-08 07:59:00,SystemResetWarning,0836.4,5.00,000.00,028.1,026.6,000.0,036.5,029.6,15.6,0000.0,0014.17,0003.59,0001.86
